[[{"header":{"parameterUnit":"m.s-1","parameterCategory":1,"la1":30.2991,"la2":30.254,"lo1":-89.0895,"lo2":-89.0444,"dy":0.0017,"dx":0.0017,"nx":28,"ny":28,"refTime":"2024-04-04T03:00:00:Z","depth":0,"parameterNumber":2,"parameterNumberName":"U-component_of_WINDS"},"data":[0,0,0,0,0,0,0,0,0,0,0,0,0,0,0,0,0,0,0,0,0,0,0,0,0,0,0,0,0,0,0,0,0,0,0,0,0,0,0,0,0,0,0,0,0,0,0,0,0,0,0,0,0,0,0,0,0,0,1.9356,1.9356,0,1.9389,1.9389,1.9389,1.9289,1.9286,1.9283,1.928,1.9316,1.9319,1.9323,0,0,0,0,0,0,0,0,0,0,0,0,0,1.921,1.9213,1.9356,1.9356,1.9357,1.9388,1.9389,1.9389,1.929,1.9286,1.9283,1.9279,1.9315,1.9319,1.9324,0,0,0,0,0,0,0,0,0,0,0,0,0,1.9261,1.9214,1.9356,1.9311,1.9307,1.9388,1.9389,1.9389,1.9291,1.9286,1.9282,1.9277,1.9313,1.9319,1.9324,1.9451,0,0,1.9341,1.9344,0,0,0,0,0,0,0,0,1.9258,1.9266,1.9317,1.9314,1.931,1.933,1.935,1.941,1.9292,1.9297,1.928,1.9275,1.9324,1.9329,1.9345,1.9452,1.9454,1.9342,1.9345,1.9348,1.9349,0,0,0,0,0,0,0,1.9255,1.9264,1.9369,1.9318,1.9314,1.929,1.9292,1.9361,1.9336,1.9296,1.9289,1.9294,1.9322,1.934,1.9345,1.9454,1.9342,1.9347,1.935,1.9353,1.9669,1.9674,0,0,0,0,0,0,1.9257,1.9262,1.9368,1.937,1.9272,1.9296,1.9299,1.9328,1.9335,1.9332,1.9298,1.9289,1.9332,1.9339,1.9346,1.9496,1.9348,1.9353,1.9356,1.9664,1.967,1.9676,0,0,0,0,0,0,1.9254,1.9267,1.9366,1.9314,1.9325,1.9304,1.9338,1.9331,1.935,1.9336,1.9332,1.9321,1.9329,1.9338,1.9426,1.9496,1.9356,1.9361,1.9658,1.9666,1.9673,1.9797,0,0,0,0,0,0,1.925,1.9267,1.9314,1.9316,1.9328,1.9445,1.9342,1.9335,1.9359,1.9348,1.9357,1.9354,1.9326,1.9418,1.9432,1.9501,1.9365,1.9652,1.9662,1.9671,1.9787,1.9808,1.9826,0,0,0,0,0,1.9245,1.9348,1.9317,1.933,1.9387,1.945,1.9457,1.9422,1.9365,1.9414,1.9405,1.9354,1.9486,1.9428,1.9442,1.9515,1.9648,1.9659,1.967,1.9778,1.9804,1.9826,0,0,0,0,0,0,1.9355,1.9347,1.9313,1.9419,1.9436,1.9433,1.9492,1.945,1.9484,1.9473,1.9429,1.9432,1.9528,1.953,1.9465,1.9639,1.9557,1.9572,1.9634,1.9659,1.9678,1.9677,1.937,0,0,0,0,0,1.9392,1.9443,1.9433,1.9527,1.9537,1.9514,1.954,1.9512,1.9528,1.9535,1.9532,1.9551,1.9596,1.9627,1.9668,1.9786,1.9788,1.9843,1.9863,1.9879,1.9893,1.9958,1.9983,1.9713,1.9713,1.9713,0,0,1.9468,1.9469,1.9504,1.955,1.9559,1.9614,1.952,1.9582,1.9623,1.9544,1.9627,1.9627,1.9644,1.9748,1.9793,1.9752,1.9968,1.9894,1.9907,1.9912,1.9972,1.9997,2.002,1.9721,1.9719,1.9718,0,0,1.9635,1.964,1.9721,1.9732,1.9748,1.9732,1.9751,1.9755,1.9752,1.9834,1.9776,1.9824,1.9903,1.9919,1.9937,2.0111,2.0066,2.0125,2.0229,2.0293,2.0314,2.0333,2.0397,2.042,2.0139,2.0139,2.0139,0,1.9728,1.9807,1.9767,1.9834,1.9856,1.9786,1.9868,1.9881,1.9911,1.9928,1.9881,1.998,1.9987,2.0094,2.0137,2.0153,2.0175,2.0125,2.0314,2.0332,2.0349,2.041,2.0434,2.0147,2.0146,2.0145,2.0144,0,1.9922,1.9978,2.0041,2.0071,2.01,2.0174,2.0146,2.018,2.015,2.0139,2.0225,2.023,2.0272,2.0295,2.0266,2.0399,2.0373,2.0321,2.0239,2.0383,2.0439,2.0462,2.0157,2.0154,2.0152,2.015,0,0,2.016,2.0166,2.0191,2.0204,2.0217,2.026,2.0331,2.0372,2.0403,2.0425,2.0485,2.0554,2.0506,2.0527,2.0498,2.0554,2.0694,2.0495,2.0495,2.0533,2.0844,2.0885,2.0912,2.0663,2.0667,2.0671,2.0843,0,2.0326,2.0447,2.0414,2.0535,2.0588,2.0523,2.0585,2.0601,2.0592,2.0636,2.0627,2.0677,2.0609,2.0621,2.0673,2.0666,2.0756,2.0653,2.072,2.0723,2.072,2.0941,2.0984,2.1146,2.0864,2.0868,2.0871,0,2.0536,2.0567,2.0694,2.0699,2.072,2.0777,2.0812,2.0854,2.0871,2.0861,2.0885,2.0846,2.0917,2.0833,2.0931,2.0862,2.0887,2.0888,2.0894,2.09,2.0807,2.0955,2.1197,2.1222,2.0905,2.0902,2.0899,0,2.07,2.0773,2.0859,2.0872,2.088,2.0921,2.0926,2.0938,2.0965,2.0996,2.1014,2.1053,2.1075,2.1106,2.1079,2.102,2.1183,2.1096,2.1178,2.1179,2.1217,2.1215,2.1468,2.123,2.123,2.1229,2.1229,0,2.089,2.0971,2.0932,2.0986,2.1075,2.1036,2.1125,2.1123,2.1134,2.1187,2.1132,2.1183,2.1143,2.1191,2.117,2.1256,2.1266,2.1261,2.1255,2.1267,2.1268,2.1285,2.1274,2.1236,2.1234,2.1233,2.1232,0,2.1088,2.1066,2.1156,2.1156,2.1157,2.1224,2.1224,2.1274,2.1261,2.1329,2.1342,2.1323,2.1376,2.1352,2.1408,2.1394,2.1505,2.1483,2.15,2.1495,2.158,2.1573,2.1853,2.1889,2.1626,2.1629,2.1631,0,2.1212,2.1273,2.128,2.1311,2.132,2.1371,2.1398,2.1362,2.1393,2.1417,2.1464,2.1513,2.155,2.1638,2.163,2.1672,2.1652,2.1747,2.1658,2.1669,2.1656,2.1654,2.1661,2.1766,2.1769,2.1772,2.1774,0,2.1436,2.1422,2.1463,2.1501,2.1535,2.1564,2.1587,2.1616,2.1581,2.1619,2.1672,2.1701,2.1758,2.1808,2.1845,2.1851,2.1808,2.1801,2.1823,2.1837,2.1846,2.1844,2.1551,2.1796,2.1793,2.1792,2.1791,2.179,2.1602,2.1654,2.1667,2.1715,2.1729,2.1753,2.18,2.1794,2.1838,2.1881,2.1857,2.192,2.1936,2.1982,2.1994,2.2044,2.2007,2.2038,2.2046,2.2055,2.2067,2.1836,2.2051,2.205,2.2049,2.2049,2.2048,0,2.1824,2.183,2.1874,2.1909,2.1948,2.1902,2.1926,2.1962,2.2018,2.2036,2.2074,2.2136,2.2184,2.218,2.2224,2.2265,2.2246,2.2278,2.2276,2.2278,2.2097,2.2075,2.2292,2.2292,2.2292,2.2292,2.2292,2.2292,2.1945,2.203,2.2018,2.2111,2.2115,2.2177,2.2195,2.2217,2.2231,2.2303,2.2343,2.2339,2.2349,2.2393,2.2436,2.2433,2.2453,2.2493,2.2484,2.2315,2.2291,2.2268,2.2247,2.2497,2.2497,2.2661,2.2663,2.2664]},{"header":{"parameterUnit":"m.s-1","parameterCategory":1,"la1":30.2991,"la2":30.254,"lo1":-89.0895,"lo2":-89.0444,"dy":0.0017,"dx":0.0017,"nx":28,"ny":28,"refTime":"2024-04-04T03:00:00:Z","depth":0,"parameterNumber":3,"parameterNumberName":"V-component_of_WINDS"},"data":[0,0,0,0,0,0,0,0,0,0,0,0,0,0,0,0,0,0,0,0,0,0,0,0,0,0,0,0,0,0,0,0,0,0,0,0,0,0,0,0,0,0,0,0,0,0,0,0,0,0,0,0,0,0,0,0,0,0,-1.7613,-1.7615,0,-1.7731,-1.7732,-1.7733,-1.7801,-1.7801,-1.7802,-1.7802,-1.7921,-1.7923,-1.7926,0,0,0,0,0,0,0,0,0,0,0,0,0,-1.7447,-1.745,-1.7613,-1.7615,-1.7616,-1.773,-1.7732,-1.7734,-1.7801,-1.7801,-1.7802,-1.7802,-1.792,-1.7923,-1.7927,0,0,0,0,0,0,0,0,0,0,0,0,0,-1.7537,-1.7451,-1.7613,-1.7664,-1.7669,-1.773,-1.7732,-1.7734,-1.7801,-1.7801,-1.7802,-1.7802,-1.7919,-1.7923,-1.7927,-1.7946,0,0,-1.794,-1.7942,0,0,0,0,0,0,0,0,-1.7532,-1.7543,-1.7655,-1.766,-1.7667,-1.7752,-1.7717,-1.7805,-1.7801,-1.7751,-1.7802,-1.7802,-1.7864,-1.7873,-1.7894,-1.7952,-1.7957,-1.7941,-1.7943,-1.7945,-1.7947,0,0,0,0,0,0,0,-1.7526,-1.7539,-1.766,-1.7656,-1.7664,-1.768,-1.7694,-1.7734,-1.7804,-1.7755,-1.7761,-1.7774,-1.7867,-1.789,-1.7897,-1.7959,-1.7941,-1.7945,-1.7947,-1.7949,-1.8038,-1.8038,0,0,0,0,0,0,-1.7512,-1.7533,-1.7656,-1.7663,-1.7599,-1.7683,-1.7698,-1.7724,-1.7804,-1.7816,-1.7773,-1.7776,-1.7882,-1.7892,-1.7902,-1.7929,-1.7945,-1.7949,-1.7952,-1.8039,-1.8038,-1.8038,0,0,0,0,0,0,-1.7508,-1.7522,-1.7651,-1.76,-1.7617,-1.7686,-1.7714,-1.7726,-1.7749,-1.7817,-1.783,-1.7783,-1.7883,-1.7896,-1.7935,-1.7934,-1.7951,-1.7955,-1.8039,-1.8039,-1.8038,-1.7984,0,0,0,0,0,0,-1.7503,-1.752,-1.7528,-1.7599,-1.762,-1.7682,-1.7714,-1.7728,-1.7756,-1.7761,-1.783,-1.7841,-1.7884,-1.7928,-1.7939,-1.7941,-1.7959,-1.8039,-1.8039,-1.8038,-1.7987,-1.7982,-1.7979,0,0,0,0,0,-1.7497,-1.7508,-1.7528,-1.7543,-1.7631,-1.7682,-1.7694,-1.7743,-1.7756,-1.7764,-1.7808,-1.7839,-1.7933,-1.7931,-1.7945,-1.7947,-1.804,-1.8039,-1.8038,-1.7988,-1.7983,-1.7979,0,0,0,0,0,0,-1.7434,-1.7518,-1.7541,-1.7576,-1.7622,-1.7694,-1.7706,-1.7736,-1.7778,-1.7781,-1.784,-1.7855,-1.7889,-1.7922,-1.7919,-1.797,-1.799,-1.7992,-1.7947,-1.7943,-1.7939,-1.793,-1.7962,0,0,0,0,0,-1.7424,-1.7459,-1.7531,-1.7554,-1.7576,-1.7637,-1.7661,-1.7695,-1.7744,-1.7763,-1.7811,-1.7857,-1.7897,-1.7922,-1.7962,-1.7992,-1.8008,-1.8001,-1.7997,-1.7993,-1.7994,-1.8013,-1.801,-1.8036,-1.8036,-1.8036,0,0,-1.7404,-1.7455,-1.7473,-1.7543,-1.7582,-1.7616,-1.7652,-1.7687,-1.7713,-1.7769,-1.7809,-1.7845,-1.7901,-1.7935,-1.7953,-1.7964,-1.7991,-1.7993,-1.7989,-1.7992,-1.8012,-1.8009,-1.8007,-1.8036,-1.8036,-1.8036,0,0,-1.7386,-1.7427,-1.7452,-1.7491,-1.755,-1.759,-1.7596,-1.7664,-1.769,-1.7732,-1.7774,-1.7806,-1.7874,-1.7912,-1.794,-1.7937,-1.7967,-1.7949,-1.7927,-1.7945,-1.7943,-1.7941,-1.794,-1.7939,-1.7949,-1.7949,-1.7949,0,-1.7353,-1.7407,-1.746,-1.7493,-1.7522,-1.7575,-1.7601,-1.7636,-1.7705,-1.7724,-1.7736,-1.7822,-1.7864,-1.7908,-1.7907,-1.7929,-1.7937,-1.794,-1.7939,-1.7938,-1.7937,-1.7937,-1.7936,-1.7947,-1.7947,-1.7947,-1.7947,0,-1.7364,-1.74,-1.7413,-1.7479,-1.7511,-1.7539,-1.7597,-1.7622,-1.7654,-1.7693,-1.7735,-1.7786,-1.7838,-1.7852,-1.7883,-1.7901,-1.7906,-1.7928,-1.7948,-1.7931,-1.7932,-1.7932,-1.7943,-1.7944,-1.7945,-1.7945,0,0,-1.7307,-1.7404,-1.7407,-1.7438,-1.7508,-1.7537,-1.7569,-1.762,-1.7641,-1.7687,-1.7714,-1.7771,-1.7792,-1.7824,-1.786,-1.7875,-1.787,-1.7896,-1.7898,-1.7888,-1.7893,-1.7875,-1.7874,-1.7891,-1.7891,-1.7891,-1.7888,0,-1.7298,-1.7357,-1.7406,-1.7447,-1.7481,-1.7533,-1.756,-1.7606,-1.7644,-1.7679,-1.7721,-1.776,-1.7785,-1.7804,-1.7822,-1.7866,-1.7871,-1.7868,-1.7916,-1.7917,-1.79,-1.7874,-1.7856,-1.785,-1.7888,-1.7888,-1.7889,0,-1.7294,-1.7339,-1.7383,-1.745,-1.7467,-1.749,-1.7542,-1.7575,-1.7628,-1.7655,-1.7691,-1.7729,-1.7764,-1.7782,-1.7832,-1.7828,-1.7851,-1.7876,-1.7878,-1.7883,-1.7901,-1.7878,-1.785,-1.7848,-1.7889,-1.7889,-1.7889,0,-1.7247,-1.7319,-1.7355,-1.738,-1.7459,-1.7475,-1.7508,-1.7562,-1.759,-1.7636,-1.7655,-1.7703,-1.773,-1.7767,-1.7817,-1.7825,-1.7861,-1.7883,-1.7884,-1.7883,-1.7888,-1.7887,-1.7862,-1.7904,-1.7904,-1.7904,-1.7904,0,-1.7231,-1.7256,-1.7335,-1.7357,-1.7386,-1.7443,-1.7471,-1.7509,-1.7557,-1.7587,-1.7635,-1.7662,-1.7727,-1.7763,-1.7802,-1.7837,-1.7849,-1.7871,-1.7881,-1.7866,-1.7863,-1.7881,-1.7883,-1.7904,-1.7904,-1.7904,-1.7904,0,-1.7183,-1.7237,-1.7279,-1.7352,-1.7371,-1.7389,-1.7451,-1.7474,-1.7516,-1.7553,-1.7565,-1.763,-1.7674,-1.7728,-1.7789,-1.7816,-1.7847,-1.7863,-1.7829,-1.7835,-1.7832,-1.7831,-1.7817,-1.7818,-1.786,-1.786,-1.7859,0,-1.7168,-1.7189,-1.7264,-1.7287,-1.732,-1.7358,-1.7387,-1.7445,-1.7473,-1.7537,-1.7552,-1.76,-1.7641,-1.7709,-1.7761,-1.7809,-1.7825,-1.7817,-1.7833,-1.7817,-1.7825,-1.7822,-1.7825,-1.7813,-1.7812,-1.7811,-1.7811,0,-1.7136,-1.7162,-1.7203,-1.7253,-1.7287,-1.7329,-1.7373,-1.739,-1.7457,-1.7487,-1.7533,-1.7565,-1.7628,-1.7675,-1.7729,-1.7764,-1.7798,-1.7806,-1.7809,-1.7793,-1.7772,-1.7783,-1.7817,-1.7806,-1.7806,-1.7806,-1.7807,-1.7807,-1.7104,-1.7124,-1.7181,-1.7224,-1.7264,-1.7305,-1.733,-1.7376,-1.7415,-1.7471,-1.7503,-1.7548,-1.7602,-1.7679,-1.7713,-1.7749,-1.7761,-1.7765,-1.7766,-1.7765,-1.7761,-1.7767,-1.7759,-1.7759,-1.7759,-1.776,-1.776,0,-1.7073,-1.7113,-1.7153,-1.7213,-1.7248,-1.7279,-1.733,-1.7356,-1.7395,-1.7443,-1.7483,-1.7537,-1.7583,-1.7639,-1.7689,-1.7707,-1.7724,-1.7718,-1.7717,-1.7724,-1.7747,-1.7739,-1.7704,-1.7704,-1.7704,-1.7704,-1.7704,-1.7704,-1.7062,-1.7098,-1.7131,-1.7188,-1.7227,-1.7272,-1.7298,-1.7336,-1.7375,-1.7432,-1.7471,-1.7508,-1.756,-1.7614,-1.7658,-1.7674,-1.7689,-1.7678,-1.7698,-1.7718,-1.7723,-1.7727,-1.7721,-1.7682,-1.7682,-1.7673,-1.7673,-1.7673]}]]